KEPLER-9 (ARTEMIS) (47531 NORAD) Tracking and Keplerian Element Data

This shows tracking and keplerian element data for the satellite.

Feedback or suggestion? Click here.




ElementValue
Catalog47531
NameKEPLER-9 (ARTEMIS)
Epoch Orbit1352
Epoch Day105.74977643
Epoch Year2021
RAAN168.0414
Inclination97.5028
Eccentricity0.0008222
Argument of Perigee343.1506
Mean Anonmoly16.945
Mean Motion15.11859429
Decay Rate9.78E-06
L11 47531U 21006DX 21105.74977643 .00000978 00000-0 60932-4 0 9993
L22 47531 97.5028 168.0414 0008222 343.1506 16.9450 15.11859429 13524

Live tracking and technical data element details for KEPLER-9 (ARTEMIS) (NORAD 47531). KEPLER-9 (ARTEMIS) can be tracked NOW for your location showing map with azimuth and elevation plus other details from your city location.

Track the satellite on the map from your city or location and see movement details for azimuth, elevation, latitude, longitude, range, height, and movement on the map or in text.







IsCatalogInMostPopularTable: catalog: 47531, numindb: 16
Update: records affected: 1



GetName: 47531 KEPLER-9 (ARTEMIS)

Hit Count: updated at: Fri, 16 Apr 2021 11:55:09 GMT